TimeEST,TemperatureF,Dew PointF,Humidity,Sea Level PressureIn,VisibilityMPH,Wind Direction,Wind SpeedMPH,Gust SpeedMPH,PrecipitationIn,Events,Conditions,WindDirDegrees,DateUTC
12:58 AM,21.7,21.7,100,29.96,10.0,Calm,Calm,-,N/A,,Overcast,0,2014-01-17 05:58:00
1:58 AM,23.9,23.9,100,29.94,10.0,Calm,Calm,-,N/A,,Overcast,0,2014-01-17 06:58:00
2:58 AM,25.5,25.5,100,29.93,10.0,East,2.3,-,N/A,,Overcast,90,2014-01-17 07:58:00
3:58 AM,25.5,25.5,100,29.93,10.0,NNE,1.2,-,N/A,,Overcast,30,2014-01-17 08:58:00
4:58 AM,26.2,26.2,100,29.92,10.0,Calm,Calm,-,N/A,,Overcast,0,2014-01-17 09:58:00
5:58 AM,27.9,27.5,99,29.93,10.0,Calm,Calm,-,N/A,,Overcast,0,2014-01-17 10:58:00
6:58 AM,28.0,27.9,99,29.94,10.0,NNE,1.2,-,N/A,,Overcast,30,2014-01-17 11:58:00
7:58 AM,25.9,25.9,100,29.95,10.0,Calm,Calm,-,N/A,,Clear,0,2014-01-17 12:58:00
8:58 AM,30.4,30.0,99,29.97,10.0,Calm,Calm,-,N/A,,Clear,0,2014-01-17 13:58:00
9:58 AM,32.7,26.1,76,29.98,10.0,Calm,Calm,-,N/A,,Mostly Cloudy,0,2014-01-17 14:58:00
10:58 AM,35.1,26.8,72,29.96,10.0,East,3.5,-,N/A,,Overcast,100,2014-01-17 15:58:00
11:58 AM,37.8,25.7,62,29.95,10.0,Calm,Calm,-,N/A,,Mostly Cloudy,0,2014-01-17 16:58:00
1:15 PM,39.2,26.6,61,29.89,10.0,SSE,2.3,-,N/A,,Mostly Cloudy,160,2014-01-17 18:15:00
1:55 PM,40.1,27.3,60,29.91,10.0,Calm,Calm,-,N/A,,Overcast,0,2014-01-17 18:55:00
1:59 PM,40.1,27.3,60,29.91,10.0,Calm,Calm,-,N/A,,Overcast,0,2014-01-17 18:59:00
2:26 PM,41.0,26.6,57,29.88,10.0,Variable,1.2,-,N/A,,Overcast,0,2014-01-17 19:26:00
3:58 PM,41.4,26.2,55,29.91,10.0,SSE,2.3,-,N/A,,Overcast,150,2014-01-17 20:58:00
4:58 PM,37.8,26.8,65,29.92,10.0,Calm,Calm,-,N/A,,Partly Cloudy,0,2014-01-17 21:58:00
7:58 PM,28.9,28.9,100,29.93,10.0,NE,2.3,-,N/A,,Clear,40,2014-01-18 00:58:00
8:58 PM,28.2,28.2,100,29.92,10.0,NNE,3.5,-,N/A,,Clear,30,2014-01-18 01:58:00
9:58 PM,29.1,29.1,100,29.91,10.0,NE,4.6,-,N/A,,Clear,40,2014-01-18 02:58:00
10:58 PM,30.0,29.8,99,29.88,10.0,NE,4.6,-,N/A,,Clear,40,2014-01-18 03:58:00
11:58 PM,31.3,31.1,99,29.84,10.0,NE,3.5,-,N/A,,Clear,50,2014-01-18 04:58:00